Strathmore, CA

1:20 PM PDT on August 30, 2014 (GMT -0700)
Orchard Ridge | Change Station
CLOSE
Current Station
Personal Weather Station
Location: Porterville, CA
Elevation: 423 ft
Nearby Weather Stations

Elev 423 ft 36.09 °N, 119.06 °W | Updated 2 seconds ago

Clear
Clear
94.3 °F
Feels Like 93 °F
N
3.5
Wind Variable Wind from North
Gusts 3.5 mph

Today
High -- | Low -- °F
--% Chance of Precip.
Yesterday
High -- | Low -- °F
Precip. -- in
6:26 AM 7:26 PM
Waxing Crescent, 24% visible
Pressure 29.87 in
Visibility 10.0 miles
Clouds Clear
Heat Index 93 °F
Dew Point 58 °F
Humidity 30%
Rainfall 0.00 in
Snow Depth Not available.
UV 10 out of 12
Pollen 9.90 out of 12
Ozone Good
PM2.5 Moderate
Flu Activity Not available.
METAR KPTV 302015Z AUTO 25004KT 10SM CLR 32/12 A2987 RMK AO1

More Conditions Fewer Conditions

Pressure 29.87 in
Visibility 10.0 miles
Clouds Clear
Heat Index 93 °F
Dew Point 58 °F
Humidity 30%
Rainfall 0.00 in
Snow Depth Not available.
UV 10 out of 12
Pollen 9.90 out of 12
Ozone Good
PM2.5 Moderate
Flu Activity Not available.
METAR KPTV 302015Z AUTO 25004KT 10SM CLR 32/12 A2987 RMK AO1

More Conditions Fewer Conditions

10-Day Weather Forecast

Almanac

Astronomy

Aug. 30, 2014 Rise Set
Actual Time 6:26 AM PDT 7:26 PM PDT
Civil Twilight 6:00 AM PDT 7:52 PM PDT
Nautical Twilight 5:28 AM PDT 8:24 PM PDT
Astronomical Twilight 4:56 AM PDT 8:56 PM PDT
Moon 11:08 AM PDT 10:14 PM PDT
Length of Visible Light 13h 52m
Length of Day
13h 00m
Tomorrow will be 2m 11s shorter.
Waxing Crescent, 24% of the Moon is Illuminated
Today
Waxing Crescent
Sep 2
First Quarter
Sep 8
Full
Sep 15
Last Quarter
Sep 24
New

Today's Extremes

State Highs State Lows

Community

WunderPhotos

Upload Photos

1,748,622 photos uploaded!

WunderBlogs® & News

Nearby

Air Quality

  Air Quality AQ Index Pollutant
Yesterday Unhealthy for Sensitive Groups
OZONE
Yesterday Good
PM2.5
Current Moderate
PM2.5
Current Good
OZONE
Saturday Good
OZONE
Sunday Good
OZONE
Monday Good
OZONE
Tuesday Good
OZONE
Wednesday Good
OZONE

Snow Depth

Station Depth Elevation
Leavitt Meadows 1 in 7200 ft
Summit Meadow 0 in 9122 ft
Monitor Pass 0 in 8350 ft
Hagan's Meadow 0 in 8000 ft
Rubicon #2 0 in 7500 ft

Earthquake Activity

City Distance Mag. Time & Date
Orange Cove, California 34 miles 2.5 7:48 AM PDT
2014-08-29
Minimum magnitude displayed is 2.5.

Coastal Water Temperatures

Place Temperature
No Stations Reporting

Nearby Weather Stations